Time,TemperatureF,DewpointF,PressureIn,WindDirection,WindDirectionDegrees,WindSpeedMPH,WindSpeedGustMPH,Humidity,HourlyPrecipIn,Conditions,Clouds,dailyrainin,SolarRadiationWatts/m^2,SoftwareType,DateUTC
2013-03-24 04:00:00,35.0,21.0,29.87,ENE,60,3.0,-999.0,56,-99.99,,,-99.99,0.000000,,2013-03-24 08:00:00,
2013-03-24 04:52:00,35.0,21.0,29.87,ENE,60,3.0,-999.0,56,-99.99,,,-99.99,0.000000,,2013-03-24 08:52:00,
2013-03-24 05:00:00,34.0,21.0,29.85,North,357,1.0,-999.0,58,-99.99,,,-99.99,0.000000,,2013-03-24 09:00:00,
2013-03-24 05:53:00,34.0,21.0,29.85,North,357,1.0,-999.0,58,-99.99,,,-99.99,0.000000,,2013-03-24 09:53:00,
2013-03-24 06:00:00,34.0,21.0,29.85,North,3,3.0,-999.0,59,-99.99,,,-99.99,0.000000,,2013-03-24 10:00:00,
2013-03-24 06:53:00,34.0,21.0,29.85,North,3,3.0,-999.0,59,-99.99,,,-99.99,0.000000,,2013-03-24 10:53:00,
2013-03-24 07:00:00,33.0,20.0,29.84,North,5,3.0,-999.0,58,-99.99,,,-99.99,0.050000,,2013-03-24 11:00:00,
2013-03-24 07:52:00,33.0,20.0,29.84,North,5,3.0,-999.0,58,-99.99,,,-99.99,0.050000,,2013-03-24 11:52:00,
2013-03-24 08:00:00,34.0,21.0,29.82,North,3,3.0,-999.0,59,-99.99,,,-99.99,13.970000,,2013-03-24 12:00:00,
2013-03-24 08:52:00,34.0,21.0,29.82,North,3,3.0,-999.0,59,-99.99,,,-99.99,13.970000,,2013-03-24 12:52:00,
2013-03-24 09:00:00,34.0,20.0,29.81,NNE,27,3.0,-999.0,56,-99.99,,,-99.99,55.939999,,2013-03-24 13:00:00,
2013-03-24 09:52:00,34.0,20.0,29.81,NNE,27,3.0,-999.0,56,-99.99,,,-99.99,55.939999,,2013-03-24 13:52:00,
2013-03-24 10:00:00,36.0,21.0,29.79,NNE,31,4.0,-999.0,53,-99.99,,,-99.99,115.860001,,2013-03-24 14:00:00,
2013-03-24 10:53:00,36.0,21.0,29.79,NNE,31,4.0,-999.0,53,-99.99,,,-99.99,115.860001,,2013-03-24 14:53:00,
2013-03-24 11:00:00,37.0,20.0,29.78,NNE,27,4.0,-999.0,49,-99.99,,,-99.99,146.289993,,2013-03-24 15:00:00,
2013-03-24 11:53:00,37.0,20.0,29.78,NNE,27,4.0,-999.0,49,-99.99,,,-99.99,146.289993,,2013-03-24 15:53:00,
2013-03-24 12:00:00,37.0,20.0,29.74,ENE,66,6.0,-999.0,49,-99.99,,,-99.99,140.929993,,2013-03-24 16:00:00,
2013-03-24 12:53:00,37.0,20.0,29.74,ENE,66,6.0,-999.0,49,-99.99,,,-99.99,140.929993,,2013-03-24 16:53:00,
2013-03-24 13:00:00,39.0,20.0,29.70,NE,50,5.0,-999.0,47,-99.99,,,-99.99,193.380005,,2013-03-24 17:00:00,
2013-03-24 13:53:00,39.0,20.0,29.70,NE,50,5.0,-999.0,47,-99.99,,,-99.99,193.380005,,2013-03-24 17:53:00,
2013-03-24 14:00:00,39.0,19.0,29.64,NE,45,5.0,-999.0,45,-99.99,,,-99.99,194.229996,,2013-03-24 18:00:00,
2013-03-24 14:53:00,39.0,19.0,29.64,NE,45,5.0,-999.0,45,-99.99,,,-99.99,194.229996,,2013-03-24 18:53:00,
2013-03-24 15:00:00,39.0,19.0,29.61,NE,54,4.0,-999.0,45,-99.99,,,-99.99,128.429993,,2013-03-24 19:00:00,
2013-03-24 15:53:00,39.0,19.0,29.61,NE,54,4.0,-999.0,45,-99.99,,,-99.99,128.429993,,2013-03-24 19:53:00,
2013-03-24 16:00:00,35.0,27.0,29.60,NNE,19,3.0,-999.0,73,-99.99,,,-99.99,75.570000,,2013-03-24 20:00:00,
2013-03-24 16:53:00,35.0,27.0,29.60,NNE,19,3.0,-999.0,73,-99.99,,,-99.99,75.570000,,2013-03-24 20:53:00,
2013-03-24 17:00:00,32.0,31.0,29.62,NW,313,4.0,-999.0,98,-99.99,,,-99.99,22.719999,,2013-03-24 21:00:00,
2013-03-24 17:53:00,32.0,31.0,29.62,NW,313,4.0,-999.0,98,-99.99,,,-99.99,22.719999,,2013-03-24 21:53:00,
2013-03-24 18:00:00,32.0,32.0,29.61,NW,320,0.0,-999.0,100,-99.99,,,-99.99,7.500000,,2013-03-24 22:00:00,
2013-03-24 18:53:00,32.0,32.0,29.61,NW,320,0.0,-999.0,100,-99.99,,,-99.99,7.500000,,2013-03-24 22:53:00,
2013-03-24 19:00:00,32.0,32.0,29.58,North,0,0.0,-999.0,100,-99.99,,,-99.99,3.540000,,2013-03-24 23:00:00,
2013-03-24 19:53:00,32.0,32.0,29.58,North,0,0.0,-999.0,100,-99.99,,,-99.99,3.540000,,2013-03-24 23:53:00,
2013-03-24 20:00:00,32.0,32.0,29.57,North,0,0.0,-999.0,100,-99.99,,,-99.99,0.250000,,2013-03-25 00:00:00,
2013-03-24 20:53:00,32.0,32.0,29.57,North,0,0.0,-999.0,100,-99.99,,,-99.99,0.250000,,2013-03-25 00:53:00,
2013-03-24 21:00:00,31.0,31.0,29.54,North,0,0.0,-999.0,100,-99.99,,,-99.99,0.000000,,2013-03-25 01:00:00,
2013-03-24 21:53:00,31.0,31.0,29.54,North,0,0.0,-999.0,100,-99.99,,,-99.99,0.000000,,2013-03-25 01:53:00,
2013-03-24 22:00:00,31.0,31.0,29.57,North,0,0.0,-999.0,100,-99.99,,,-99.99,0.000000,,2013-03-25 02:00:00,
2013-03-24 22:52:00,31.0,31.0,29.57,North,0,0.0,-999.0,100,-99.99,,,-99.99,0.000000,,2013-03-25 02:52:00,
2013-03-24 23:00:00,31.0,31.0,29.54,North,0,0.0,-999.0,100,-99.99,,,-99.99,0.000000,,2013-03-25 03:00:00,
2013-03-24 23:53:00,31.0,31.0,29.54,North,0,0.0,-999.0,100,-99.99,,,-99.99,0.000000,,2013-03-25 03:53:00,